| time (UTC) | temp F | wind direction | speed MPH | gust MPH | rain 1hr in | rain 24hr in | rain mn in | humidity % | barometer mb |
| 20260831030211 | 85 | 337 | 0.0 | 0.0 | 0.00 | 0.00 | 0.00 | 29 | 1013.3 |
| 20260831025228 | 86 | 337 | 0.0 | 1.0 | 0.00 | 0.00 | 0.00 | 29 | 1013.2 |
| 20260831024212 | 87 | 225 | 0.0 | 0.0 | 0.00 | 0.00 | 0.00 | 27 | 1013.1 |
| 20260831023228 | 88 | 225 | 0.0 | 0.0 | 0.00 | 0.00 | 0.00 | 26 | 1013.1 |
| 20260831022313 | 89 | 225 | 0.0 | 0.0 | 0.00 | 0.00 | 0.00 | 24 | 1013.1 |
| 20260831021327 | 89 | 225 | 0.0 | 0.0 | 0.00 | 0.00 | 0.00 | 25 | 1012.9 |
| 20260831020313 | 90 | 225 | 0.0 | 0.0 | 0.00 | 0.00 | 0.00 | 24 | 1013.0 |
| 20260831015311 | 91 | 225 | 0.0 | 0.0 | 0.00 | 0.00 | 0.00 | 22 | 1013.0 |
| 20260831014329 | 92 | 292 | 0.0 | 0.0 | 0.00 | 0.00 | 0.00 | 22 | 1012.9 |
| 20260831014213 | 92 | 292 | 0.0 | 1.0 | 0.00 | 0.00 | 0.00 | 22 | 1012.8 |
| 20260831013211 | 92 | 270 | 0.0 | 1.0 | 0.00 | 0.00 | 0.00 | 21 | 1012.8 |
| 20260831012228 | 93 | 231 | 5.0 | 7.0 | 0.00 | 0.00 | 0.00 | 21 | 1012.8 |
| 20260831011213 | 93 | 240 | 4.0 | 8.0 | 0.00 | 0.00 | 0.00 | 21 | 1012.9 |
| 20260831010310 | 94 | 285 | 5.0 | 7.0 | 0.00 | 0.00 | 0.00 | 20 | 1012.8 |
| 20260831005410 | 94 | 267 | 5.0 | 7.0 | 0.00 | 0.00 | 0.00 | 20 | 1012.9 |
| 20260831004427 | 94 | 223 | 6.0 | 9.0 | 0.00 | 0.00 | 0.00 | 21 | 1012.8 |
| 20260831003412 | 94 | 287 | 5.0 | 9.0 | 0.00 | 0.00 | 0.00 | 22 | 1013.0 |
| 20260831001429 | 95 | 247 | 6.0 | 10.0 | 0.00 | 0.00 | 0.00 | 21 | 1013.0 |
| 20260831000429 | 95 | 264 | 6.0 | 11.0 | 0.00 | 0.00 | 0.00 | 21 | 1013.1 |
| 20260830234428 | 94 | 243 | 4.0 | 6.0 | 0.00 | 0.00 | 0.00 | 21 | 1012.9 |
| 20260830232611 | 93 | 238 | 7.0 | 16.0 | 0.00 | 0.00 | 0.00 | 22 | 1012.9 |
| 20260830231613 | 93 | 236 | 9.0 | 13.0 | 0.00 | 0.00 | 0.00 | 22 | 1012.9 |
| 20260830230712 | 93 | 261 | 4.0 | 9.0 | 0.00 | 0.00 | 0.00 | 21 | 1013.1 |
| 20260830225726 | 93 | 256 | 7.0 | 11.0 | 0.00 | 0.00 | 0.00 | 22 | 1013.1 |
| 20260830222813 | 94 | 250 | 5.0 | 9.0 | 0.00 | 0.00 | 0.00 | 21 | 1013.5 |
| 20260830221828 | 94 | 250 | 6.0 | 11.0 | 0.00 | 0.00 | 0.00 | 22 | 1013.7 |
| 20260830220826 | 94 | 239 | 5.0 | 8.0 | 0.00 | 0.00 | 0.00 | 21 | 1013.7 |
| 20260830215811 | 94 | 234 | 9.0 | 13.0 | 0.00 | 0.00 | 0.00 | 21 | 1013.8 |
| 20260830214814 | 94 | 247 | 9.0 | 14.0 | 0.00 | 0.00 | 0.00 | 22 | 1014.0 |
| 20260830213829 | 94 | 215 | 10.0 | 15.0 | 0.00 | 0.00 | 0.00 | 22 | 1014.2 |
| 20260830212814 | 94 | 247 | 8.0 | 12.0 | 0.00 | 0.00 | 0.00 | 22 | 1014.0 |
| 20260830211911 | 95 | 209 | 11.0 | 16.0 | 0.00 | 0.00 | 0.00 | 22 | 1014.3 |
| 20260830210911 | 95 | 273 | 7.0 | 12.0 | 0.00 | 0.00 | 0.00 | 23 | 1014.2 |
| 20260830205912 | 95 | 248 | 9.0 | 14.0 | 0.00 | 0.00 | 0.00 | 21 | 1014.3 |
| 20260830204911 | 95 | 244 | 9.0 | 16.0 | 0.00 | 0.00 | 0.00 | 22 | 1014.5 |
| 20260830203911 | 95 | 238 | 6.0 | 9.0 | 0.00 | 0.00 | 0.00 | 22 | 1014.4 |
| 20260830202913 | 97 | 241 | 12.0 | 17.0 | 0.00 | 0.00 | 0.00 | 21 | 1014.5 |
| 20260830201012 | 98 | 201 | 9.0 | 13.0 | 0.00 | 0.00 | 0.00 | 21 | 1014.6 |
| 20260830200027 | 99 | 183 | 5.0 | 11.0 | 0.00 | 0.00 | 0.00 | 21 | 1014.7 |
| 20260830195013 | 97 | 209 | 4.0 | 7.0 | 0.00 | 0.00 | 0.00 | 22 | 1014.7 |
| 20260830193110 | 97 | 197 | 9.0 | 15.0 | 0.00 | 0.00 | 0.00 | 21 | 1014.9 |
| 20260830192128 | 98 | 193 | 9.0 | 14.0 | 0.00 | 0.00 | 0.00 | 20 | 1015.1 |
| 20260830191111 | 97 | 165 | 7.0 | 20.0 | 0.00 | 0.00 | 0.00 | 22 | 1014.9 |
| 20260830190127 | 97 | 176 | 4.0 | 7.0 | 0.00 | 0.00 | 0.00 | 22 | 1015.3 |
| 20260830185210 | 95 | 196 | 2.0 | 3.0 | 0.00 | 0.00 | 0.00 | 22 | 1015.3 |
| 20260830184212 | 96 | 221 | 9.0 | 15.0 | 0.00 | 0.00 | 0.00 | 23 | 1015.5 |
| 20260830183229 | 96 | 207 | 10.0 | 17.0 | 0.00 | 0.00 | 0.00 | 23 | 1015.5 |
| 20260830182312 | 95 | 210 | 7.0 | 10.0 | 0.00 | 0.00 | 0.00 | 23 | 1015.4 |
| 20260830181312 | 95 | 236 | 7.0 | 12.0 | 0.00 | 0.00 | 0.00 | 23 | 1015.5 |
| 20260830180326 | 95 | 209 | 3.0 | 5.0 | 0.00 | 0.00 | 0.00 | 23 | 1015.7 |
| 20260830175412 | 94 | 68 | 4.0 | 7.0 | 0.00 | 0.00 | 0.00 | 24 | 1015.8 |
| 20260830174510 | 95 | 38 | 5.0 | 7.0 | 0.00 | 0.00 | 0.00 | 24 | 1015.9 |
| 20260830172612 | 94 | 106 | 2.0 | 4.0 | 0.00 | 0.00 | 0.00 | 26 | 1015.9 |
| 20260830171711 | 93 | 62 | 2.0 | 4.0 | 0.00 | 0.00 | 0.00 | 26 | 1016.0 |
| 20260830170810 | 93 | 60 | 5.0 | 7.0 | 0.00 | 0.00 | 0.00 | 25 | 1015.9 |
| 20260830165826 | 92 | 146 | 1.0 | 3.0 | 0.00 | 0.00 | 0.00 | 27 | 1015.9 |
| 20260830164810 | 91 | 135 | 0.0 | 2.0 | 0.00 | 0.00 | 0.00 | 28 | 1015.9 |
| 20260830163825 | 90 | 112 | 4.0 | 6.0 | 0.00 | 0.00 | 0.00 | 28 | 1015.9 |
| 20260830162827 | 89 | 132 | 1.0 | 4.0 | 0.00 | 0.00 | 0.00 | 30 | 1016.0 |
| 20260830161814 | 89 | 104 | 6.0 | 10.0 | 0.00 | 0.00 | 0.00 | 31 | 1015.9 |
| 20260830160813 | 88 | 88 | 5.0 | 8.0 | 0.00 | 0.00 | 0.00 | 32 | 1015.7 |
| 20260830155910 | 87 | 110 | 5.0 | 7.0 | 0.00 | 0.00 | 0.00 | 33 | 1015.9 |
| 20260830154927 | 87 | 88 | 6.0 | 9.0 | 0.00 | 0.00 | 0.00 | 33 | 1015.9 |
| 20260830154010 | 86 | 110 | 6.0 | 11.0 | 0.00 | 0.00 | 0.00 | 34 | 1016.0 |
| 20260830152127 | 85 | 112 | 4.0 | 9.0 | 0.00 | 0.00 | 0.00 | 36 | 1015.9 |
| 20260830151128 | 85 | 105 | 4.0 | 6.0 | 0.00 | 0.00 | 0.00 | 37 | 1015.9 |
| 20260830150210 | 85 | 81 | 5.0 | 12.0 | 0.00 | 0.00 | 0.00 | 37 | 1016.0 |
| 20260830145309 | 84 | 87 | 5.0 | 11.0 | 0.00 | 0.00 | 0.00 | 38 | 1016.0 |
| 20260830145211 | 84 | 93 | 4.0 | 9.0 | 0.00 | 0.00 | 0.00 | 38 | 1016.0 |
| 20260830144210 | 84 | 119 | 2.0 | 7.0 | 0.00 | 0.00 | 0.00 | 39 | 1015.9 |
| 20260830143211 | 83 | 119 | 2.0 | 3.0 | 0.00 | 0.00 | 0.00 | 40 | 1015.8 |
| 20260830142309 | 82 | 99 | 5.0 | 8.0 | 0.00 | 0.00 | 0.00 | 41 | 1015.9 |
| 20260830141309 | 81 | 116 | 2.0 | 3.0 | 0.00 | 0.00 | 0.00 | 43 | 1015.6 |
| 20260830141226 | 81 | 99 | 2.0 | 4.0 | 0.00 | 0.00 | 0.00 | 43 | 1015.7 |
| 20260830140312 | 81 | 97 | 4.0 | 6.0 | 0.00 | 0.00 | 0.00 | 43 | 1015.6 |
| 20260830135410 | 80 | 114 | 4.0 | 6.0 | 0.00 | 0.00 | 0.00 | 44 | 1015.8 |
| 20260830133427 | 78 | 202 | 0.0 | 0.0 | 0.00 | 0.00 | 0.00 | 47 | 1015.7 |
| 20260830132512 | 78 | 202 | 1.0 | 3.0 | 0.00 | 0.00 | 0.00 | 48 | 1015.4 |
| 20260830131510 | 78 | 180 | 0.0 | 0.0 | 0.00 | 0.00 | 0.00 | 47 | 1015.2 |
| 20260830130525 | 78 | 180 | 2.0 | 4.0 | 0.00 | 0.00 | 0.00 | 47 | 1015.1 |
| 20260830125511 | 78 | 202 | 1.0 | 1.0 | 0.00 | 0.00 | 0.00 | 46 | 1015.1 |
| 20260830123610 | 80 | 163 | 1.0 | 3.0 | 0.00 | 0.00 | 0.00 | 43 | 1014.7 |
| 20260830122612 | 80 | 157 | 1.0 | 3.0 | 0.00 | 0.00 | 0.00 | 43 | 1014.7 |
| 20260830121626 | 80 | 112 | 1.0 | 1.0 | 0.00 | 0.00 | 0.00 | 43 | 1014.5 |
| 20260830120710 | 80 | 133 | 2.0 | 4.0 | 0.00 | 0.00 | 0.00 | 44 | 1014.5 |
| 20260830115712 | 80 | 157 | 1.0 | 2.0 | 0.00 | 0.00 | 0.00 | 44 | 1014.4 |
| 20260830113711 | 81 | 112 | 1.0 | 3.0 | 0.00 | 0.00 | 0.00 | 43 | 1014.1 |
| 20260830112709 | 82 | 112 | 0.0 | 1.0 | 0.00 | 0.00 | 0.00 | 42 | 1014.2 |
| 20260830111728 | 82 | 166 | 1.0 | 3.0 | 0.00 | 0.00 | 0.00 | 42 | 1014.3 |
| 20260830110811 | 82 | 119 | 2.0 | 3.0 | 0.00 | 0.00 | 0.00 | 41 | 1014.5 |
| 20260830105825 | 82 | 135 | 1.0 | 2.0 | 0.00 | 0.00 | 0.00 | 42 | 1014.2 |
| 20260830104826 | 82 | 180 | 1.0 | 3.0 | 0.00 | 0.00 | 0.00 | 41 | 1014.2 |
| 20260830103814 | 83 | 156 | 2.0 | 4.0 | 0.00 | 0.00 | 0.00 | 40 | 1014.1 |
| 20260830102827 | 83 | 157 | 2.0 | 4.0 | 0.00 | 0.00 | 0.00 | 38 | 1013.9 |
| 20260830101826 | 84 | 99 | 5.0 | 8.0 | 0.00 | 0.00 | 0.00 | 38 | 1013.9 |
| 20260830100910 | 84 | 113 | 3.0 | 6.0 | 0.00 | 0.00 | 0.00 | 39 | 1013.8 |
| 20260830095011 | 84 | 119 | 4.0 | 5.0 | 0.00 | 0.00 | 0.00 | 38 | 1013.7 |
| 20260830093010 | 85 | 135 | 0.0 | 0.0 | 0.00 | 0.00 | 0.00 | 35 | 1013.4 |
| 20260830092013 | 85 | 90 | 1.0 | 2.0 | 0.00 | 0.00 | 0.00 | 36 | 1013.2 |
| 20260830091011 | 85 | 66 | 4.0 | 7.0 | 0.00 | 0.00 | 0.00 | 35 | 1013.2 |
| 20260830090010 | 85 | 84 | 2.0 | 4.0 | 0.00 | 0.00 | 0.00 | 35 | 1013.2 |
| 20260830085027 | 85 | 62 | 3.0 | 5.0 | 0.00 | 0.00 | 0.00 | 34 | 1013.1 |
| 20260830084025 | 85 | 180 | 0.0 | 3.0 | 0.00 | 0.00 | 0.00 | 35 | 1013.4 |
| 20260830083110 | 85 | 247 | 3.0 | 4.0 | 0.00 | 0.00 | 0.00 | 33 | 1013.4 |
| 20260830082110 | 86 | 104 | 4.0 | 7.0 | 0.00 | 0.00 | 0.00 | 33 | 1013.3 |
| 20260830080211 | 85 | 112 | 2.0 | 3.0 | 0.00 | 0.00 | 0.00 | 29 | 1013.5 |
| 20260830075309 | 85 | 182 | 4.0 | 6.0 | 0.00 | 0.00 | 0.00 | 29 | 1013.7 |
| 20260830074311 | 85 | 157 | 1.0 | 2.0 | 0.00 | 0.00 | 0.00 | 27 | 1013.6 |
| 20260830073327 | 85 | 106 | 1.0 | 3.0 | 0.00 | 0.00 | 0.00 | 27 | 1013.3 |
| 20260830071327 | 86 | 318 | 0.0 | 2.0 | 0.00 | 0.00 | 0.00 | 27 | 1013.3 |
| 20260830070409 | 87 | 90 | 2.0 | 3.0 | 0.00 | 0.00 | 0.00 | 27 | 1013.3 |
| 20260830065425 | 86 | 90 | 3.0 | 4.0 | 0.00 | 0.00 | 0.00 | 26 | 1013.3 |
| 20260830064408 | 85 | 283 | 0.0 | 0.0 | 0.00 | 0.00 | 0.00 | 28 | 1013.3 |
| 20260830063411 | 85 | 45 | 0.0 | 0.0 | 0.00 | 0.00 | 0.00 | 29 | 1013.0 |
| 20260830062411 | 84 | 255 | 1.0 | 4.0 | 0.00 | 0.00 | 0.00 | 30 | 1013.1 |
| 20260830062313 | 84 | 247 | 4.0 | 6.0 | 0.00 | 0.00 | 0.00 | 30 | 1013.1 |
| 20260830061311 | 84 | 135 | 0.0 | 0.0 | 0.00 | 0.00 | 0.00 | 30 | 1013.1 |
| 20260830060312 | 85 | 135 | 0.0 | 0.0 | 0.00 | 0.00 | 0.00 | 29 | 1013.0 |
| 20260830055320 | 86 | 135 | 0.0 | 0.0 | 0.00 | 0.00 | 0.00 | 27 | 1013.0 |
| 20260830054320 | 87 | 135 | 0.0 | 0.0 | 0.00 | 0.00 | 0.00 | 26 | 1013.1 |
| 20260830053336 | 88 | 135 | 2.0 | 3.0 | 0.00 | 0.00 | 0.00 | 25 | 1013.1 |
| 20260830052337 | 89 | 270 | 0.0 | 0.0 | 0.00 | 0.00 | 0.00 | 25 | 1013.1 |
| 20260830051321 | 89 | 282 | 1.0 | 2.0 | 0.00 | 0.00 | 0.00 | 25 | 1013.1 |
| 20260830050321 | 89 | 292 | 1.0 | 2.0 | 0.00 | 0.00 | 0.00 | 24 | 1012.9 |
| 20260830045419 | 89 | 247 | 1.0 | 2.0 | 0.00 | 0.00 | 0.00 | 25 | 1013.1 |
| 20260830043434 | 90 | 247 | 0.0 | 0.0 | 0.00 | 0.00 | 0.00 | 23 | 1013.1 |
| 20260830043318 | 91 | 247 | 0.0 | 0.0 | 0.00 | 0.00 | 0.00 | 23 | 1013.0 |
| 20260830042321 | 92 | 247 | 0.0 | 1.0 | 0.00 | 0.00 | 0.00 | 22 | 1012.9 |
| 20260830041321 | 92 | 247 | 1.0 | 2.0 | 0.00 | 0.00 | 0.00 | 22 | 1013.0 |
| 20260830040337 | 93 | 248 | 4.0 | 7.0 | 0.00 | 0.00 | 0.00 | 22 | 1012.9 |
| 20260830035420 | 93 | 247 | 2.0 | 3.0 | 0.00 | 0.00 | 0.00 | 21 | 1012.8 |
| 20260830034419 | 93 | 248 | 4.0 | 6.0 | 0.00 | 0.00 | 0.00 | 21 | 1012.7 |
| 20260830033420 | 93 | 223 | 5.0 | 8.0 | 0.00 | 0.00 | 0.00 | 21 | 1012.5 |
| 20260830032436 | 94 | 226 | 3.0 | 6.0 | 0.00 | 0.00 | 0.00 | 20 | 1012.4 |
| 20260830031419 | 94 | 238 | 4.0 | 6.0 | 0.00 | 0.00 | 0.00 | 20 | 1012.2 |